This demonstration page uses our WeatherBlox Daily Observations layout. Learn more.

Left ArrowRight Arrow

39.12711, -84.51439

Hourly Observations for October 3, 2016

Temp ( °F °C ) Dew Point ( °F °C ) Humidity (%) Winds ( mph kmh ) Pressure ( in mb ) Visibility ( mi km ) Precip ( " mm )
12:03 am 00:03 Clear with Mist and Fog 55 13 55 13 100 100 Calm 30.09 1019 2 3 0.00 0.00
12:11 am 00:11 Clear with Mist and Fog 56 13.3 56 13.3 100 100 Calm 30.09 1019 3 5 0.00 0.00
12:18 am 00:18 Mostly Clear with Mist and Fog 54 12 54 12 100 100 Calm 30.09 1019 2 2 0.00 0.00
12:27 am 00:27 Mostly Clear with Fog 54 12.2 54 12.2 100 100 Calm 30.09 1019 1 1 0.00 0.00
12:45 am 00:45 Mostly Clear with Mist and Fog 53 11.7 53 11.7 100 100 Calm 30.09 1019 1 1 0.00 0.00
12:49 am 00:49 Mostly Cloudy with Fog 54 12 54 12 100 100 Calm 30.09 1019 0 0 0.00 0.00
12:53 am 00:53 Mostly Cloudy with Fog 53 11.7 53 11.7 100 100 Calm 30.09 1019 0 0 0.00 0.00
1:07 am 01:07 Mostly Cloudy with Mist and Fog 54 12.2 54 12.2 100 100 Calm 30.09 1019 1 1 0.00 0.00
1:20 am 01:20 Mostly Cloudy with Fog 53 11.7 53 11.7 100 100 Calm 30.09 1019 0 0 0.00 0.00
1:29 am 01:29 Mostly Cloudy with Mist and Fog 53 11.7 53 11.7 100 100 Calm 30.09 1019 1 2 0.00 0.00
1:33 am 01:33 Mostly Cloudy with Mist and Fog 53 11.7 53 11.7 100 100 Calm 30.09 1019 3 5 0.00 0.00
1:53 am 01:53 Cloudy with Mist and Fog 53 11.7 53 11.7 100 100 Calm 30.09 1019 5 8 0.00 0.00
2:26 am 02:26 Mostly Cloudy with Mist and Fog 52 11 52 11 100 100 NE 3 6 30.09 1019 2 3 0.00 0.00
2:30 am 02:30 Mostly Cloudy with Mist and Fog 52 11 52 11 100 100 Calm 30.09 1019 1 1 0.00 0.00
2:50 am 02:50 Mostly Cloudy with Fog 54 12 54 12 100 100 Calm 30.09 1019 0 0 0.00 0.00
2:53 am 02:53 Mostly Cloudy with Fog 54 12.2 54 12.2 100 100 Calm 30.09 1019 0 0 0.00 0.00
3:53 am 03:53 Mostly Cloudy with Fog 54 12.2 54 12.2 100 100 Calm 30.08 1019 0 0 0.00 0.00
4:53 am 04:53 Mostly Cloudy with Fog 53 11.7 53 11.7 100 100 NNE 3 6 30.08 1019 0 0 0.00 0.00
5:53 am 05:53 Mostly Cloudy with Fog 53 11.7 53 11.7 100 100 Calm 30.09 1019 0 0 0.00 0.00
6:53 am 06:53 Mostly Cloudy with Fog 52 11.1 52 11.1 100 100 Calm 30.10 1019 0 0 0.00 0.00
7:53 am 07:53 Mostly Cloudy with Fog 51 10.6 51 10.6 100 100 Calm 30.11 1020 5 8 0.00 0.00
8:53 am 08:53 Mostly Cloudy with Fog 53 11.7 53 11.7 100 100 Calm 30.12 1020 0 0 0.00 0.00
9:08 am 09:08 Mostly Cloudy with Mist and Fog 54 12 54 12 100 100 Calm 30.12 1020 1 2 0.00 0.00
9:48 am 09:48 Partly Cloudy with Mist and Fog 55 13 55 13 100 100 NE 3 6 30.12 1020 2 3 0.00 0.00
9:53 am 09:53 Partly Cloudy with Mist and Fog 57 13.9 57 13.9 100 100 NE 3 6 30.12 1020 5 8 0.00 0.00
10:53 am 10:53 Sunny 64 17.8 59 15 84 84 N 3 6 30.12 1020 8 13 0.00 0.00
11:53 am 11:53 Partly Cloudy 66 18.9 59 15 78 78 Calm 30.11 1020 10 16 0.00 0.00
12:53 pm 12:53 Partly Cloudy 68 20 57 13.9 68 68 ENE 5 7 30.10 1019 10 16 0.00 0.00
1:53 pm 13:53 Partly Cloudy 70 21.1 57 13.9 64 64 SW 5 7 30.08 1019 10 16 0.00 0.00
2:53 pm 14:53 Hazy 73 22.8 55 12.8 53 53 ESE 5 7 30.06 1018 4 6 0.00 0.00
3:53 pm 15:53 Partly Cloudy 73 22.8 55 12.8 53 53 Calm 30.05 1018 10 16 0.00 0.00
4:53 pm 16:53 Mostly Cloudy 74 23.3 56 13.3 54 54 ENE 6 9 30.04 1017 10 16 0.00 0.00
5:53 pm 17:53 Mostly Cloudy 72 22.2 58 14.4 61 61 Calm 30.04 1017 10 16 0.00 0.00
6:53 pm 18:53 Mostly Cloudy 67 19.4 62 16.7 84 84 Calm 30.04 1017 10 16 0.00 0.00
7:53 pm 19:53 Mostly Clear 63 17.2 61 16.1 93 93 Calm 30.05 1018 10 16 0.00 0.00
8:53 pm 20:53 Clear 59 15 59 15 100 100 Calm 30.06 1018 10 16 0.00 0.00
9:53 pm 21:53 Clear 57 13.9 57 13.9 100 100 Calm 30.08 1019 7 11 0.00 0.00
10:53 pm 22:53 Clear with Mist and Fog 55 12.8 55 12.8 100 100 Calm 30.08 1019 7 11 0.00 0.00
11:28 pm 23:28 Clear with Mist and Fog 55 13 55 13 100 100 Calm 30.09 1019 2 3 0.00 0.00
11:38 pm 23:38 Clear with Mist and Fog 55 13 55 13 100 100 Calm 30.09 1019 6 10 0.00 0.00
11:53 pm 23:53 Clear with Mist and Fog 55 12.8 55 12.8 100 100 Calm 30.08 1019 6 10 0.00 0.00

Powered by AerisWeather